Date,TemperatureHighF,TemperatureAvgF,TemperatureLowF,DewpointHighF,DewpointAvgF,DewpointLowF,HumidityHigh,HumidityAvg,HumidityLow,PressureMaxIn,PressureMinIn,WindSpeedMaxMPH,WindSpeedAvgMPH,GustSpeedMaxMPH,PrecipitationSumIn
2012-12-1,81,71,63,64,62,56,89,75,55,30.09,29.98,0,0,0,0.00
2012-12-2,76,68,60,65,62,56,88,83,69,30.12,30.01,0,0,0,0.00
2012-12-3,74,65,60,64,59,56,89,83,70,30.03,29.93,0,0,0,0.00
2012-12-4,73,64,48,62,53,40,90,69,39,30.20,29.99,0,0,0,0.00
2012-12-5,73,54,36,43,37,29,78,56,25,30.23,30.01,0,0,0,0.00
2012-12-6,75,61,50,52,50,42,90,69,42,30.01,29.80,0,0,0,0.00
2012-12-7,76,63,56,62,57,52,90,82,58,29.87,29.77,0,0,0,0.00
2012-12-8,80,68,62,66,62,57,91,80,57,29.88,29.77,0,0,0,0.00
2012-12-9,78,68,67,66,64,63,90,86,65,29.86,29.79,0,0,0,0.00
2012-12-10,49,39,29,25,19,15,64,45,32,30.10,30.01,0,0,0,0.00
2012-12-11,54,39,23,24,19,14,77,48,27,30.17,30.03,0,0,0,0.00
2012-12-12,65,49,24,29,24,15,76,40,25,30.26,30.14,0,0,0,0.00
2012-12-13,67,53,38,48,38,25,79,56,46,30.24,30.11,0,0,0,0.00
2012-12-14,67,60,52,62,54,42,89,82,61,30.13,29.81,0,0,0,0.02
2012-12-15,71,64,54,63,49,39,90,61,34,29.94,29.83,0,0,0,0.00
2012-12-16,71,60,47,59,49,37,90,69,41,29.85,29.74,0,0,0,0.04
2012-12-17,71,55,44,37,31,28,71,44,21,29.95,29.84,0,0,0,0.00
2012-12-18,84,67,45,54,41,28,81,42,20,29.88,29.76,0,0,0,0.00
2012-12-19,80,70,63,64,61,32,89,75,32,29.88,29.61,0,0,0,0.00
2012-12-20,66,46,30,32,16,6,47,32,17,30.39,29.88,0,0,0,0.00
2012-12-21,64,42,24,20,13,7,54,35,16,30.45,30.29,0,0,0,0.00
2012-12-22,68,53,33,53,38,13,81,57,33,30.31,30.03,0,0,0,0.00
2012-12-23,70,61,55,57,54,48,87,78,59,30.03,29.86,0,0,0,0.00
2012-12-24,68,52,41,47,36,29,88,57,27,29.97,29.74,0,0,0,0.00
2012-12-25,64,48,31,58,33,18,88,57,33,30.10,29.54,0,0,0,0.00
2012-12-26,43,31,24,20,17,15,70,58,41,30.21,30.05,0,0,0,0.00
2012-12-27,46,37,23,40,30,15,88,76,62,30.05,29.80,0,0,0,0.00
2012-12-28,58,45,29,43,36,23,90,74,43,30.17,29.76,0,0,0,0.00
2012-12-29,51,37,28,26,23,19,80,59,34,30.39,30.17,0,0,0,0.00
2012-12-30,49,40,26,40,26,18,84,57,38,30.39,30.11,0,0,0,0.00
2012-12-31,59,52,45,56,49,40,91,90,84,30.12,29.90,0,0,0,0.18